DW5321 Paradera AW current weather conditions

sailwx.info

Wind from 116 at 9 knots gusting 13

Air temperature 27.2° C
Dewpoint 23.9° C

Last reported at 2016-May-26 09:41 UTC.
Time now 2016-May-26 10:46 UTC

Location: N 12°33' W 070°00'.
View on Google Maps.

See reports from other nearby stations

  
Tides and Currents Weather Stations Pressure Air Temp Water Temp Dewpoint Dewpoint Depression Visibility Wind Speed Wind Dir Waves Ship Positions
date/time (UTC)wind fromknots sea level pressurealtimeterstation pressurevisibilityair tempwater tempwave heightnotes
2016-May-26 09:41 116 9 gusting 13 27.2
2016-May-26 09:25 090 6 gusting 14 27.2
2016-May-26 09:11 120 7 gusting 14 27.2
2016-May-26 08:55 105 7 gusting 13 27.2
2016-May-26 08:41 089 8 gusting 14 27.2
2016-May-26 08:25 108 6 gusting 13 27.2
2016-May-26 08:11 079 10 gusting 14 27.2
2016-May-26 07:55 094 7 gusting 13 27.2
2016-May-26 07:40 078 8 gusting 16 27.2
2016-May-26 07:25 084 7 gusting 14 27.2
2016-May-26 07:10 113 6 gusting 14 27.2
2016-May-26 06:55 124 6 gusting 10 27.2
2016-May-26 06:39 103 6 gusting 12 27.2
2016-May-26 06:25 085 6 gusting 13 27.2
2016-May-26 06:10 086 6 gusting 11 27.2
2016-May-26 05:55 122 8 gusting 12 27.2
2016-May-26 05:39 137 6 gusting 13 27.2
2016-May-26 05:24 103 6 gusting 13 27.2
2016-May-26 05:10 132 5 gusting 13 27.2
2016-May-26 04:54 094 6 gusting 13 27.2
2016-May-26 04:40 101 7 gusting 14 27.2
2016-May-26 04:24 078 6 gusting 10 27.2
2016-May-26 04:08 079 5 gusting 12 27.2
2016-May-26 03:54 110 6 gusting 13 27.2
2016-May-26 03:39 072 5 gusting 12 27.2
2016-May-26 03:23 110 8 gusting 13 27.2
2016-May-26 03:09 064 7 gusting 13 27.2
2016-May-26 02:53 096 6 gusting 13 27.8
2016-May-26 02:38 101 7 gusting 15 27.8
2016-May-26 02:24 092 8 gusting 13 27.2
2016-May-26 02:08 075 9 gusting 16 27.2
2016-May-26 01:53 077 8 gusting 15 27.8
2016-May-26 01:39 058 10 gusting 17 27.8
2016-May-26 01:23 071 9 gusting 16 27.8
2016-May-26 01:07 117 10 gusting 16 27.8
2016-May-26 00:53 107 8 gusting 14 27.8
2016-May-26 00:38 090 6 gusting 12 27.8
2016-May-26 00:22 098 6 gusting 13 27.8
2016-May-26 00:08 099 8 gusting 15 27.8
2016-May-25 23:52 075 6 gusting 11 27.8
2016-May-25 23:38 072 6 gusting 16 27.8
2016-May-25 23:22 091 10 gusting 14 27.8
2016-May-25 23:07 095 7 gusting 15 28.3
2016-May-25 22:52 086 9 gusting 17 28.3
2016-May-25 22:36 054 7 gusting 13 28.3
2016-May-25 22:22 082 9 gusting 18 28.3
2016-May-25 22:07 054 12 gusting 20 28.3
2016-May-25 21:51 085 9 gusting 16 28.3
2016-May-25 21:37 068 8 gusting 17 28.9
2016-May-25 21:22 053 9 gusting 20 28.9
2016-May-25 21:06 077 12 gusting 21 28.9
2016-May-25 20:52 096 9 gusting 19 29.4
2016-May-25 20:36 075 12 gusting 22 30.0
2016-May-25 20:21 060 13 gusting 20 30.0
2016-May-25 20:07 058 8 gusting 19 30.0
2016-May-25 19:50 099 9 gusting 17 30.0
2016-May-25 19:36 077 6 gusting 19 30.6
2016-May-25 19:21 108 11 gusting 18 30.0
2016-May-25 19:05 077 9 gusting 17 30.6
2016-May-25 18:51 091 11 gusting 19 30.6
2016-May-25 18:36 077 10 gusting 18 30.6
2016-May-25 18:21 105 8 gusting 17 31.1
2016-May-25 18:05 092 10 gusting 22 30.0
2016-May-25 17:50 117 11 gusting 20 30.6
2016-May-25 17:36 104 12 gusting 22 30.6
2016-May-25 17:20 060 10 gusting 19 31.1
2016-May-25 17:04 093 11 gusting 24 30.6
2016-May-25 16:50 048 10 gusting 17 30.6
2016-May-25 16:35 097 13 gusting 20 30.0
2016-May-25 16:19 075 11 gusting 16 30.6
2016-May-25 16:05 077 8 gusting 19 30.6
2016-May-25 15:49 053 11 gusting 19 30.0
2016-May-25 15:35 094 8 gusting 18 30.0
2016-May-25 15:19 084 8 gusting 17 30.0
2016-May-25 15:04 101 13 gusting 19 30.0
2016-May-25 14:50 080 13 gusting 19 30.0
2016-May-25 14:34 073 11 gusting 21 29.4
2016-May-25 14:18 083 10 gusting 20 30.0
2016-May-25 14:04 101 9 gusting 23 29.4
2016-May-25 13:49 108 12 gusting 23 29.4
2016-May-25 13:33 107 13 gusting 19 29.4
2016-May-25 13:19 117 14 gusting 23 28.9
2016-May-25 13:03 109 13 gusting 23 28.9
2016-May-25 12:48 101 12 gusting 22 28.9
2016-May-25 12:32 070 13 gusting 19 28.9
2016-May-25 12:18 117 9 gusting 16 28.9
2016-May-25 12:03 108 12 gusting 18 27.8
2016-May-25 11:47 096 13 gusting 19 27.8
2016-May-25 11:33 082 10 gusting 19 27.8
2016-May-25 11:17 115 9 gusting 18 27.8
2016-May-25 11:03 113 12 gusting 19 27.8
2016-May-25 10:47 113 14 gusting 20 27.8
2016-May-25 10:33 108 8 gusting 18 27.8
2016-May-25 10:18 112 11 gusting 19 27.8
2016-May-25 10:02 124 12 gusting 19 27.8
2016-May-25 09:47 127 7 gusting 20 27.8
2016-May-25 09:32 040 8 gusting 20 27.8
2016-May-25 09:18 074 7 gusting 15 27.8
2016-May-25 09:02 114 9 gusting 17 27.8
2016-May-25 08:47 105 7 gusting 13 27.8
2016-May-25 08:31 103 9 gusting 16 27.8
2016-May-25 08:17 108 9 gusting 16 27.8
2016-May-25 08:01 100 9 gusting 18 27.8
2016-May-25 07:46 100 8 gusting 16 27.8
2016-May-25 07:32 104 10 gusting 19 27.8
2016-May-25 07:16 100 9 gusting 21 27.8
2016-May-25 07:00 079 12 gusting 21 27.8
2016-May-25 06:46 101 13 gusting 19 27.8
2016-May-25 06:32 098 6 gusting 15 27.8
2016-May-25 06:16 117 9 gusting 22 27.8
2016-May-25 06:00 073 10 gusting 15 27.8
2016-May-25 05:46 117 12 gusting 16 27.8
2016-May-25 05:30 084 10 gusting 22 27.8
2016-May-25 05:16 096 10 gusting 19 27.8
2016-May-25 05:00 101 8 gusting 15 27.8
2016-May-25 04:45 108 7 gusting 15 27.8
2016-May-25 04:29 071 12 gusting 20 27.8
2016-May-25 04:15 069 9 gusting 17 27.8
2016-May-25 04:00 084 9 gusting 16 27.8
2016-May-25 03:44 101 10 gusting 20 27.8
2016-May-25 03:30 101 14 gusting 20 27.8
2016-May-25 03:14 101 11 gusting 19 27.8
2016-May-25 02:59 091 12 gusting 19 27.8
2016-May-25 02:47 114 11 gusting 19 27.8
2016-May-25 02:29 101 10 gusting 19 27.8
2016-May-25 02:14 127 11 gusting 19 27.8
2016-May-25 01:59 073 9 gusting 18 27.8
2016-May-25 01:44 108 9 gusting 16 27.8
2016-May-25 01:30 125 8 gusting 16 27.8
2016-May-25 01:14 108 13 gusting 18 27.8
2016-May-25 00:59 098 11 gusting 19 27.8
2016-May-25 00:43 084 9 gusting 18 27.8
2016-May-25 00:29 112 12 gusting 21 27.8
2016-May-25 00:13 094 9 gusting 18 27.8
2016-May-24 23:57 091 11 gusting 21 27.8
2016-May-24 23:43 068 9 gusting 19 27.8
2016-May-24 23:26 079 12 gusting 22 27.8
2016-May-24 23:11 117 12 gusting 19 28.3
2016-May-24 22:56 069 12 gusting 21 28.3
2016-May-24 22:41 073 8 gusting 18 28.3
2016-May-24 22:25 091 10 gusting 19 28.3
2016-May-24 22:10 101 11 gusting 17 28.3
2016-May-24 21:55 060 11 gusting 19 28.3
2016-May-24 21:40 089 12 gusting 26 28.3
2016-May-24 21:26 098 12 gusting 21 28.3
2016-May-24 21:09 047 13 gusting 21 28.9
2016-May-24 20:54 111 13 gusting 20 28.9
2016-May-24 20:41 065 11 gusting 23 28.9
2016-May-24 20:24 095 9 gusting 19 28.9
2016-May-24 20:09 070 10 gusting 21 28.9
2016-May-24 19:54 058 10 gusting 20 28.9
2016-May-24 19:39 077 11 gusting 21 29.4
2016-May-24 19:25 096 12 gusting 19 29.4
2016-May-24 19:09 072 11 gusting 19 29.4
2016-May-24 18:54 100 12 gusting 19 29.4
2016-May-24 18:39 070 12 gusting 20 29.4
2016-May-24 18:24 099 11 gusting 19 29.4
2016-May-24 18:09 068 10 gusting 19 30.0
2016-May-24 17:56 097 10 gusting 25 30.0
2016-May-24 17:39 061 11 gusting 19 30.0
2016-May-24 17:24 102 13 gusting 22 30.0
2016-May-24 17:09 073 9 gusting 17 30.6
2016-May-24 16:39 032 11 gusting 24 30.0
2016-May-24 16:24 103 15 gusting 24 30.0
2016-May-24 16:09 120 16 gusting 25 30.0
2016-May-24 15:54 111 12 gusting 23 30.0
2016-May-24 15:39 124 12 gusting 19 30.0
2016-May-24 15:24 021 10 gusting 16 30.0
2016-May-24 15:09 108 13 gusting 21 30.0
2016-May-24 14:54 100 14 gusting 24 30.0
2016-May-24 14:39 113 11 gusting 20 30.0
2016-May-24 14:26 075 10 gusting 19 30.0
2016-May-24 14:09 079 12 gusting 19 30.0
2016-May-24 13:54 114 12 gusting 22 30.0
2016-May-24 13:39 091 14 gusting 22 29.4
2016-May-24 13:24 077 16 gusting 26 29.4
2016-May-24 13:09 066 13 gusting 24 29.4
2016-May-24 12:54 114 14 gusting 23 28.9
2016-May-24 12:38 075 13 gusting 22 28.9
2016-May-24 12:23 158 16 gusting 26 28.9
2016-May-24 12:09 114 15 gusting 22 28.9
2016-May-24 11:53 087 13 gusting 20 28.3
2016-May-24 11:38 090 13 gusting 23 28.3
2016-May-24 11:23 117 15 gusting 22 28.3
2016-May-24 11:08 078 13 gusting 24 28.3
2016-May-24 10:53 105 10 gusting 20 27.8
2016-May-24 10:38 106 13 gusting 20 27.8
2016-May-24 10:25 098 12 gusting 19 27.8